Find STARLINK-37047

NORAD ID: 70590 Constellation: starlink operational
LEOCIRCULAR

实时位置

正在加载3D地球...

关于 STARLINK-37047

正在加载描述...

即将过境

Passes for default location (London). Set your location on the main map for personalized predictions.

高度历史

Loading altitude history...

两行轨道根数

1 70590C 26099G 26122.85395833 -.00393370 00000+0 -48269-3 0 1220
2 70590 53.1634 22.7480 0005182 287.5297 334.8412 16.07395191 12
Epoch: May 2, 2026 • Age: 32 hours